When you browse on this site, cookies collect data to enhance your experience and personalize the content and advertising you see.
Visit our Privacy Policy to learn more. By continuing to use the site, you agree to this use of cookies and data.
  • In Deutschland
  • Länderverzeichnis
  • Für 7 Tage
  • Wassertemperatur
  • Satellitenkarten
  • Wetterkarte
  • Widgets
  • user-avatar
    Anmelden

    Stündliche Wetter Stuttgart

    Heute, 18 Dezember, Dienstag

    Zeit Temperatur Niederschläge Wind Luftdruck Luftfeuchtigkeit
    00:00 +2°C° 0 mm 2 m/S 744 mmHg 94%
    01:00 +2°C° 0 mm 1 m/S 744 mmHg 95%
    02:00 +2°C° 0 mm 1 m/S 744 mmHg 95%
    03:00 +2°C° 0 mm 1 m/S 744 mmHg 94%
    04:00 +2°C° 0 mm 1 m/S 744 mmHg 94%
    05:00 +2°C° 0 mm 1 m/S 744 mmHg 94%
    06:00 +1°C° 0 mm 1 m/S 744 mmHg 93%
    07:00 +1°C° 0 mm 1 m/S 743 mmHg 94%
    08:00 +2°C° 0 mm 1 m/S 743 mmHg 93%
    09:00 +2°C° 0 mm 1 m/S 743 mmHg 91%
    10:00 +3°C° 0 mm 1 m/S 743 mmHg 90%
    11:00 +3°C° 0 mm 2 m/S 742 mmHg 87%
    12:00 +4°C° 0 mm 2 m/S 742 mmHg 84%
    13:00 +6°C° 0 mm 1 m/S 741 mmHg 83%
    14:00 +4°C° 0 mm 2 m/S 740 mmHg 85%
    15:00 +3°C° 0 mm 2 m/S 740 mmHg 87%
    16:00 +2°C° 0 mm 2 m/S 739 mmHg 90%
    17:00 +2°C° 0 mm 2 m/S 739 mmHg 89%
    18:00 +1°C° 0 mm 2 m/S 739 mmHg 88%
    19:00 -1°C° 0 mm 2 m/S 738 mmHg 87%
    20:00 -1°C° 0 mm 2 m/S 738 mmHg 86%
    21:00 -1°C° 0 mm 2 m/S 738 mmHg 84%
    22:00 -1°C° 0 mm 2 m/S 737 mmHg 82%
    23:00 -1°C° 0 mm 2 m/S 737 mmHg 80%

    Morgen, 19 Dezember, Mittwoch

    Zeit Temperatur Niederschläge Wind Luftdruck Luftfeuchtigkeit
    00:00 -1°C° 0 mm 2 m/S 737 mmHg 78%
    01:00 -1°C° 0 mm 2 m/S 737 mmHg 76%
    02:00 +1°C° 0 mm 2 m/S 736 mmHg 73%
    03:00 +1°C° 0 mm 2 m/S 736 mmHg 70%
    04:00 +2°C° 0 mm 2 m/S 736 mmHg 68%
    05:00 +2°C° 0 mm 2 m/S 736 mmHg 67%
    06:00 +3°C° 0 mm 2 m/S 736 mmHg 66%
    07:00 +3°C° 0 mm 2 m/S 736 mmHg 66%
    08:00 +3°C° 0 mm 2 m/S 736 mmHg 68%
    09:00 +4°C° 0 mm 2 m/S 736 mmHg 71%
    10:00 +5°C° 0 mm 2 m/S 736 mmHg 74%
    11:00 +5°C° 0.1 mm 2 m/S 736 mmHg 77%
    12:00 +6°C° 0.1 mm 2 m/S 736 mmHg 81%
    13:00 +6°C° 0.1 mm 2 m/S 736 mmHg 84%
    14:00 +7°C° 0.3 mm 1 m/S 735 mmHg 87%
    15:00 +6°C° 0.3 mm 1 m/S 735 mmHg 89%
    16:00 +6°C° 0.3 mm 1 m/S 735 mmHg 91%
    17:00 +6°C° 0.4 mm 1 m/S 735 mmHg 92%
    18:00 +5°C° 0.4 mm 1 m/S 735 mmHg 92%
    19:00 +5°C° 0.4 mm 1 m/S 735 mmHg 93%
    20:00 +5°C° 0.6 mm 1 m/S 735 mmHg 94%
    21:00 +4°C° 0.6 mm 2 m/S 735 mmHg 94%
    22:00 +4°C° 0.6 mm 2 m/S 735 mmHg 95%
    23:00 +4°C° 0.2 mm 2 m/S 736 mmHg 94%

    übermorgen, 20 Dezember, Donnerstag

    Zeit Temperatur Niederschläge Wind Luftdruck Luftfeuchtigkeit
    00:00 +4°C° 0.2 mm 2 m/S 736 mmHg 94%
    01:00 +4°C° 0.2 mm 2 m/S 736 mmHg 93%
    02:00 +4°C° 0.2 mm 2 m/S 736 mmHg 93%
    03:00 +4°C° 0.2 mm 2 m/S 736 mmHg 93%
    04:00 +4°C° 0.2 mm 2 m/S 736 mmHg 93%
    05:00 +4°C° 0 mm 2 m/S 736 mmHg 93%
    06:00 +3°C° 0 mm 3 m/S 737 mmHg 92%
    07:00 +3°C° 0 mm 3 m/S 737 mmHg 92%
    08:00 +3°C° 0 mm 3 m/S 737 mmHg 91%
    09:00 +3°C° 0 mm 3 m/S 737 mmHg 89%
    10:00 +3°C° 0 mm 3 m/S 737 mmHg 88%
    11:00 +4°C° 0.4 mm 4 m/S 738 mmHg 86%
    12:00 +4°C° 0.4 mm 4 m/S 738 mmHg 85%
    13:00 +5°C° 0.4 mm 5 m/S 738 mmHg 83%
    14:00 +5°C° 0.1 mm 4 m/S 738 mmHg 85%
    15:00 +5°C° 0.1 mm 4 m/S 738 mmHg 86%
    16:00 +4°C° 0.1 mm 3 m/S 738 mmHg 87%
    17:00 +4°C° 0.1 mm 3 m/S 739 mmHg 87%
    18:00 +4°C° 0.1 mm 3 m/S 739 mmHg 88%
    19:00 +3°C° 0.1 mm 3 m/S 739 mmHg 89%
    20:00 +3°C° 0 mm 3 m/S 739 mmHg 89%
    21:00 +3°C° 0 mm 3 m/S 739 mmHg 89%
    22:00 +3°C° 0 mm 4 m/S 739 mmHg 89%
    23:00 +4°C° 0.1 mm 4 m/S 739 mmHg 88%

    21 Dezember, Freitag

    Zeit Temperatur Niederschläge Wind Luftdruck Luftfeuchtigkeit
    00:00 +4°C° 0.1 mm 4 m/S 739 mmHg 86%
    01:00 +3°C° 0.1 mm 5 m/S 739 mmHg 85%
    02:00 +3°C° 0.2 mm 5 m/S 738 mmHg 84%
    03:00 +5°C° 0.2 mm 5 m/S 738 mmHg 83%
    04:00 +5°C° 0.2 mm 5 m/S 737 mmHg 83%
    05:00 +5°C° 0.5 mm 5 m/S 737 mmHg 82%
    06:00 +5°C° 0.5 mm 5 m/S 737 mmHg 82%
    07:00 +5°C° 0.5 mm 5 m/S 736 mmHg 82%
    08:00 +5°C° 0.9 mm 6 m/S 736 mmHg 81%
    09:00 +5°C° 0.9 mm 7 m/S 735 mmHg 81%
    10:00 +6°C° 0.9 mm 7 m/S 734 mmHg 80%
    11:00 +6°C° 0.7 mm 8 m/S 734 mmHg 81%
    12:00 +7°C° 0.7 mm 8 m/S 734 mmHg 81%
    13:00 +7°C° 0.7 mm 9 m/S 734 mmHg 81%
    14:00 +7°C° 0.4 mm 9 m/S 734 mmHg 81%
    15:00 +7°C° 0.4 mm 9 m/S 734 mmHg 81%
    16:00 +7°C° 0.4 mm 8 m/S 734 mmHg 81%
    17:00 +9°C° 0.6 mm 8 m/S 734 mmHg 82%
    18:00 +9°C° 0.6 mm 8 m/S 734 mmHg 82%
    19:00 +9°C° 0.6 mm 8 m/S 734 mmHg 83%
    20:00 +9°C° 0.4 mm 8 m/S 735 mmHg 83%
    21:00 +9°C° 0.4 mm 7 m/S 735 mmHg 83%
    22:00 +9°C° 0.4 mm 7 m/S 735 mmHg 84%
    23:00 +9°C° 0.2 mm 6 m/S 735 mmHg 85%

    22 Dezember, Samstag

    Zeit Temperatur Niederschläge Wind Luftdruck Luftfeuchtigkeit
    00:00 +9°C° 0.2 mm 6 m/S 735 mmHg 86%
    01:00 +9°C° 0.2 mm 6 m/S 735 mmHg 87%
    02:00 +9°C° 0.5 mm 5 m/S 735 mmHg 87%
    03:00 +9°C° 0.5 mm 5 m/S 735 mmHg 88%
    04:00 +9°C° 0.5 mm 5 m/S 735 mmHg 89%
    05:00 +9°C° 0.8 mm 6 m/S 734 mmHg 87%
    06:00 +10°C° 0.8 mm 7 m/S 734 mmHg 86%
    07:00 +10°C° 0.8 mm 8 m/S 734 mmHg 85%
    08:00 +10°C° 0.3 mm 8 m/S 734 mmHg 83%
    09:00 +11°C° 0.3 mm 8 m/S 734 mmHg 81%
    10:00 +11°C° 0.3 mm 8 m/S 735 mmHg 80%
    11:00 +11°C° 0.5 mm 9 m/S 735 mmHg 79%
    12:00 +11°C° 0.5 mm 9 m/S 735 mmHg 78%
    13:00 +10°C° 0.5 mm 9 m/S 735 mmHg 78%
    14:00 +10°C° 0.4 mm 8 m/S 735 mmHg 79%
    15:00 +10°C° 0.4 mm 8 m/S 736 mmHg 79%
    16:00 +9°C° 0.4 mm 7 m/S 736 mmHg 80%
    17:00 +9°C° 0.3 mm 6 m/S 737 mmHg 81%
    18:00 +8°C° 0.3 mm 6 m/S 737 mmHg 82%
    19:00 +8°C° 0.3 mm 5 m/S 738 mmHg 82%
    20:00 +7°C° 0 mm 5 m/S 738 mmHg 83%
    21:00 +7°C° 0 mm 5 m/S 739 mmHg 84%
    22:00 +7°C° 0 mm 5 m/S 739 mmHg 85%
    23:00 +6°C° 0 mm 5 m/S 740 mmHg 85%

    23 Dezember, Sonntag

    Zeit Temperatur Niederschläge Wind Luftdruck Luftfeuchtigkeit
    00:00 +6°C° 0 mm 5 m/S 740 mmHg 86%
    01:00 +6°C° 0 mm 5 m/S 740 mmHg 86%
    02:00 +6°C° 0 mm 4 m/S 740 mmHg 87%
    03:00 +6°C° 0 mm 4 m/S 740 mmHg 87%
    04:00 +6°C° 0 mm 4 m/S 740 mmHg 88%
    05:00 +6°C° 0 mm 4 m/S 740 mmHg 87%
    06:00 +7°C° 0 mm 3 m/S 740 mmHg 86%
    07:00 +7°C° 0 mm 3 m/S 740 mmHg 86%
    08:00 +7°C° 0.1 mm 3 m/S 740 mmHg 86%
    09:00 +7°C° 0.1 mm 3 m/S 741 mmHg 86%
    10:00 +7°C° 0.1 mm 3 m/S 741 mmHg 87%
    11:00 +8°C° 0.5 mm 2 m/S 740 mmHg 88%
    12:00 +8°C° 0.5 mm 2 m/S 740 mmHg 89%
    13:00 +8°C° 0.5 mm 2 m/S 740 mmHg 90%
    14:00 +8°C° 0.5 mm 2 m/S 740 mmHg 91%
    15:00 +9°C° 0.5 mm 1 m/S 740 mmHg 93%
    16:00 +9°C° 0.5 mm 1 m/S 740 mmHg 94%
    17:00 +9°C° 0.8 mm 1 m/S 740 mmHg 94%
    18:00 +9°C° 0.8 mm 1 m/S 740 mmHg 95%
    19:00 +8°C° 0.8 mm 0 m/S 740 mmHg 96%
    20:00 +9°C° 0.9 mm 1 m/S 740 mmHg 96%
    21:00 +9°C° 0.9 mm 1 m/S 740 mmHg 95%
    22:00 +9°C° 0.9 mm 1 m/S 740 mmHg 95%
    23:00 +9°C° 1.2 mm 1 m/S 740 mmHg 95%
    Mehr zeigen